TimeCST,TemperatureF,Dew PointF,Humidity,Sea Level PressureIn,VisibilityMPH,Wind Direction,Wind SpeedMPH,Gust SpeedMPH,PrecipitationIn,Events,Conditions,WindDirDegrees,DateUTC
12:15 AM,27.3,23.9,87,29.91,10.0,North,16.1,-,N/A,,Overcast,360,2013-03-06 06:15:00
12:35 AM,27.3,23.5,86,29.92,5.0,North,15.0,-,N/A,Snow,Light Snow,360,2013-03-06 06:35:00
12:55 AM,27.1,24.4,90,29.93,5.0,North,10.4,-,N/A,Snow,Light Snow,10,2013-03-06 06:55:00
1:15 AM,27.1,24.6,90,29.93,7.0,North,12.7,-,N/A,Snow,Light Snow,10,2013-03-06 07:15:00
1:35 AM,27.1,24.8,91,29.94,7.0,North,10.4,-,N/A,,Overcast,360,2013-03-06 07:35:00
1:55 AM,27.3,24.8,90,29.94,10.0,North,15.0,-,N/A,,Overcast,360,2013-03-06 07:55:00
2:15 AM,27.3,24.6,90,29.95,10.0,North,15.0,-,N/A,,Overcast,10,2013-03-06 08:15:00
2:35 AM,27.5,24.3,88,29.96,10.0,North,15.0,21.9,N/A,,Overcast,360,2013-03-06 08:35:00
2:55 AM,27.3,23.9,87,29.96,10.0,North,18.4,-,N/A,,Overcast,360,2013-03-06 08:55:00
3:15 AM,27.1,23.7,87,29.97,10.0,North,15.0,24.2,N/A,,Overcast,360,2013-03-06 09:15:00
3:35 AM,27.1,23.9,88,29.98,10.0,North,17.3,20.7,N/A,,Overcast,360,2013-03-06 09:35:00
3:55 AM,27.5,24.4,88,29.99,10.0,North,12.7,21.9,N/A,,Overcast,350,2013-03-06 09:55:00
4:15 AM,27.5,24.6,89,30.00,10.0,North,18.4,21.9,N/A,,Overcast,350,2013-03-06 10:15:00
4:35 AM,28.0,24.8,88,30.01,10.0,North,12.7,-,N/A,,Overcast,350,2013-03-06 10:35:00
4:55 AM,28.4,24.8,86,30.02,10.0,North,15.0,23.0,N/A,,Overcast,350,2013-03-06 10:55:00
5:55 AM,29.7,26.2,87,30.06,10.0,North,16.1,20.7,N/A,,Overcast,350,2013-03-06 11:55:00
6:15 AM,30.0,26.2,86,30.06,10.0,North,20.7,31.1,N/A,,Overcast,360,2013-03-06 12:15:00
6:35 AM,30.0,26.4,86,30.08,10.0,North,15.0,21.9,N/A,,Overcast,350,2013-03-06 12:35:00
6:55 AM,30.2,26.6,86,30.09,7.0,North,12.7,20.7,N/A,,Overcast,350,2013-03-06 12:55:00
7:15 AM,30.0,27.3,90,30.09,3.0,North,12.7,19.6,N/A,Snow,Light Snow,360,2013-03-06 13:15:00
7:35 AM,30.4,27.7,90,30.10,7.0,North,13.8,19.6,N/A,,Overcast,360,2013-03-06 13:35:00
7:55 AM,30.7,27.5,88,30.11,5.0,North,12.7,19.6,N/A,,Overcast,10,2013-03-06 13:55:00
8:15 AM,31.1,27.0,85,30.11,7.0,North,12.7,20.7,N/A,,Overcast,360,2013-03-06 14:15:00
8:35 AM,31.5,27.1,84,30.12,10.0,North,15.0,19.6,N/A,,Overcast,360,2013-03-06 14:35:00
8:55 AM,31.8,27.1,83,30.13,10.0,North,10.4,-,N/A,,Overcast,10,2013-03-06 14:55:00
9:15 AM,32.0,26.6,80,30.14,10.0,North,10.4,18.4,N/A,,Overcast,360,2013-03-06 15:15:00
9:35 AM,32.0,27.0,82,30.14,10.0,North,12.7,19.6,N/A,,Overcast,360,2013-03-06 15:35:00
9:55 AM,32.0,26.6,80,30.15,10.0,North,12.7,-,N/A,,Overcast,350,2013-03-06 15:55:00
10:15 AM,32.2,26.4,79,30.16,10.0,North,15.0,-,N/A,,Overcast,350,2013-03-06 16:15:00
10:35 AM,32.0,26.6,80,30.17,10.0,North,12.7,-,N/A,,Overcast,350,2013-03-06 16:35:00
10:55 AM,32.4,27.0,80,30.17,10.0,North,11.5,-,N/A,,Overcast,350,2013-03-06 16:55:00
11:15 AM,32.9,27.3,80,30.17,10.0,North,10.4,-,N/A,,Overcast,360,2013-03-06 17:15:00
11:35 AM,33.3,26.8,77,30.18,10.0,NNW,12.7,-,N/A,,Overcast,340,2013-03-06 17:35:00
11:55 AM,33.4,27.1,78,30.17,10.0,NNW,12.7,17.3,N/A,,Overcast,340,2013-03-06 17:55:00
12:15 PM,33.1,27.0,78,30.17,10.0,North,11.5,-,N/A,,Overcast,360,2013-03-06 18:15:00
12:35 PM,32.0,27.9,85,30.17,10.0,NW,10.4,-,N/A,,Overcast,310,2013-03-06 18:35:00
12:55 PM,32.2,28.9,88,30.17,7.0,WNW,6.9,-,N/A,,Overcast,300,2013-03-06 18:55:00
1:15 PM,32.7,28.9,86,30.16,10.0,NW,5.8,-,N/A,,Overcast,320,2013-03-06 19:15:00
1:35 PM,32.9,29.3,87,30.17,10.0,NW,11.5,-,N/A,,Overcast,320,2013-03-06 19:35:00
1:55 PM,32.9,28.9,85,30.17,10.0,NNW,8.1,-,N/A,,Overcast,330,2013-03-06 19:55:00
2:15 PM,33.6,27.5,78,30.17,10.0,North,10.4,-,N/A,,Overcast,360,2013-03-06 20:15:00
2:35 PM,33.4,26.6,76,30.18,10.0,North,10.4,-,N/A,,Overcast,360,2013-03-06 20:35:00
2:55 PM,33.3,26.8,77,30.19,10.0,North,10.4,-,N/A,,Overcast,360,2013-03-06 20:55:00
3:15 PM,33.3,26.6,77,30.19,10.0,North,10.4,-,N/A,,Overcast,350,2013-03-06 21:15:00
3:35 PM,33.1,27.1,79,30.20,10.0,NNW,6.9,-,N/A,,Overcast,330,2013-03-06 21:35:00
3:55 PM,32.9,27.3,80,30.20,10.0,NNW,5.8,-,N/A,,Overcast,330,2013-03-06 21:55:00
4:15 PM,32.7,27.5,81,30.20,10.0,NNW,6.9,-,N/A,,Overcast,330,2013-03-06 22:15:00
4:35 PM,32.4,28.2,85,30.21,10.0,NW,6.9,-,N/A,,Overcast,320,2013-03-06 22:35:00
4:55 PM,32.2,29.1,88,30.22,5.0,NW,5.8,-,N/A,Snow,Light Snow,320,2013-03-06 22:55:00
5:15 PM,32.0,30.2,93,30.22,1.2,NNW,4.6,-,N/A,Snow,Light Snow,330,2013-03-06 23:15:00
5:35 PM,32.0,30.9,96,30.23,5.0,NNW,5.8,-,N/A,Snow,Light Snow,340,2013-03-06 23:35:00
5:55 PM,32.0,31.3,97,30.23,10.0,NNW,8.1,-,N/A,,Overcast,330,2013-03-06 23:55:00
6:15 PM,32.0,30.9,96,30.24,7.0,NNW,9.2,-,N/A,Snow,Light Snow,330,2013-03-07 00:15:00
6:35 PM,32.0,31.1,96,30.24,2.5,NNW,8.1,-,N/A,Snow,Light Snow,340,2013-03-07 00:35:00
6:55 PM,32.0,31.1,96,30.24,5.0,NNW,9.2,-,N/A,Snow,Light Snow,330,2013-03-07 00:55:00
7:15 PM,32.0,31.1,96,30.24,5.0,NW,9.2,-,N/A,Snow,Light Snow,310,2013-03-07 01:15:00
7:35 PM,31.8,30.2,94,30.25,10.0,NW,8.1,-,N/A,,Overcast,310,2013-03-07 01:35:00
7:55 PM,31.6,29.3,91,30.26,10.0,NW,9.2,16.1,N/A,,Overcast,310,2013-03-07 01:55:00
8:15 PM,31.6,29.7,92,30.26,7.0,NW,12.7,16.1,N/A,,Overcast,310,2013-03-07 02:15:00
8:35 PM,31.5,29.7,93,30.26,5.0,NW,9.2,-,N/A,Snow,Light Snow,310,2013-03-07 02:35:00
8:55 PM,31.5,30.0,94,30.26,5.0,NW,8.1,-,N/A,Snow,Light Snow,310,2013-03-07 02:55:00
9:15 PM,31.5,30.0,94,30.26,7.0,NW,8.1,-,N/A,,Overcast,320,2013-03-07 03:15:00
9:35 PM,31.3,29.7,94,30.26,5.0,WNW,8.1,-,N/A,,Overcast,300,2013-03-07 03:35:00
9:55 PM,31.3,29.3,92,30.26,7.0,NW,9.2,-,N/A,,Overcast,320,2013-03-07 03:55:00
10:15 PM,31.3,29.5,93,30.27,7.0,NW,10.4,-,N/A,,Overcast,310,2013-03-07 04:15:00
10:35 PM,31.1,29.3,93,30.26,7.0,NW,9.2,-,N/A,,Overcast,320,2013-03-07 04:35:00
10:55 PM,31.3,29.3,92,30.27,7.0,NW,8.1,-,N/A,,Overcast,310,2013-03-07 04:55:00
11:15 PM,31.5,29.3,92,30.27,10.0,NW,8.1,-,N/A,,Overcast,320,2013-03-07 05:15:00
11:35 PM,31.5,29.1,91,30.26,10.0,NW,5.8,-,N/A,,Overcast,320,2013-03-07 05:35:00
11:55 PM,31.5,29.1,91,30.26,10.0,NW,8.1,-,N/A,,Overcast,310,2013-03-07 05:55:00